Regional Weather Roundup
Issued by NWS

Home | Current Version | Previous Version | Graphics & Text | Print | Product List | Glossary On
Versions: 1 2 3 4 5 6 7 8 9 10 11 12 13 14 15 16 17 18 19 20 21 22 23 24 25 26 27 28 29 30 31 32 33 34 35 36 37 38 39 40 41 42 43 44 45 46 47 48 49 50
000
ASUS43 KMPX 281101
RWRMN
WEATHER ROUNDUP FOR MINNESOTA
NATIONAL WEATHER SERVICE TWIN CITIES/CHANHASSEN MN
500 AM CST FRI NOV 28 2014


NOTE: "FAIR" INDICATES FEW OR NO CLOUDS BELOW 12,000 FEET WITH NO
SIGNIFICANT WEATHER AND/OR OBSTRUCTIONS TO VISIBILITY. N/A MEANS
CURRENT SKY AND/OR WEATHER CONDITIONS ARE NOT AVAILABLE.

MNZ060>063-068>070-281200-
   Twin Cities Metro

CITY           SKY/WX    TMP DP  RH WIND       PRES   REMARKS
TWIN CITIES    CLOUDY    11   7  84 SE9       30.07F WCI  -2
ST PAUL        CLOUDY    12   8  84 SE13      30.08F WCI  -3
CRYSTAL        CLOUDY    13   7  77 SE10      30.05F WCI   0
BLAINE         FLURRIES  12  10  92 SE7       30.04F WCI   2
LAKEVILLE      PTCLDY     9   7  92 SE6       30.04F WCI  -1
EDEN PRAIRIE   CLOUDY    12   7  80 SE9       30.04F WCI   0
SOUTH ST PAUL  CLOUDY    12   8  81 SE8       30.07F WCI   1
LAKE ELMO      CLOUDY    12   9  85 SE10      30.06F WCI  -1
$$
MNZ001>005-007-008-013>017-022>024-027-028-281200-
   Northwest Minnesota

CITY           SKY/WX    TMP DP  RH WIND       PRES   REMARKS
BEMIDJI        CLOUDY     8   3  82 SE9       30.01S WCI  -6
HALLOCK        FLURRIES  10   5  79 E7        30.04F WCI   0
ROSEAU         PTCLDY     9   1  72 E5        30.04F WCI   0
WARROAD        PTCLDY     7   1  78 E6        30.05F WCI  -3
THIEF RVR FALL CLOUDY    10   5  79 E10       30.01S WCI  -3
CROOKSTON      CLOUDY    12   7  79 SE7       30.04R WCI   2
FOSSTON        CLOUDY     9   3  78 E7        29.99F WCI  -3
DETROIT LAKES  LGT SNOW  10   7  85 SE10      29.98F WCI  -3
MOORHEAD       MIX PCPN  12   9  85 SE9       30.00F WCI   0
PARK RAPIDS    CLOUDY     8   4  83 E7        29.99F WCI  -3
MAHNOMEN       CLOUDY    10   4  77 SE6       30.00S WCI   0
$$
MNZ006-009>011-018-025>026-281200-
   North Central Minnesota

CITY           SKY/WX    TMP DP  RH WIND       PRES   REMARKS
BAUDETTE       MOCLDY     5  -2  72 E7        30.04F WCI  -7
FLAG ISLAND    PTCLDY     1  -2  85 E6        30.06F WCI -10
INTL FALLS     CLOUDY     5  -2  72 SE5       30.07F WCI  -4
WASKISH        FLURRIES   9   3  78 CALM      30.03F
BIG FORK       LGT SNOW   9   3  78 SE5       30.04F WCI   0
LONGVILLE      FLURRIES   9   3  78 E3        30.02F
GRAND RAPIDS   CLOUDY     7   1  78 SE6       30.04F WCI  -3
CRANE LAKE     CLOUDY     5  -2  72 CALM      30.12F
ORR            FLURRIES   7  -2  66 CALM      30.04F
COOK           FLURRIES   7   0  72 SE3       30.07F
WALKER         CLOUDY     7   3  81 E6        30.01F WCI  -3
$$
MNZ012-019>021-037-281200-
   Northeast Minnesota

CITY           SKY/WX    TMP DP  RH WIND       PRES   REMARKS
DULUTH         LGT SNOW   6   1  80 SE6       30.08F WCI  -4
ELY            CLOUDY     5   0  78 S3        30.08F
HIBBING        LGT SNOW   7   0  73 SE6       30.07F WCI  -3
EVELETH        LGT SNOW   7   1  78 E3        30.08F
DULUTH HARBOR  FLURRIES  10   3  72 CALM      30.17F
TWO HARBORS    LGT SNOW  12   5  73 CALM      30.10F
SILVER BAY     PTCLDY    12   1  62 CALM      30.11F
GRAND MARAIS     N/A     14   6  70 NW5       30.17F WCI   6
G MARAIS ARPRT LGT SNOW   3  -2  78 CALM      30.06F
$$
MNZ029>031-032-039>041-046>048-054>057-064-281200-
   West Central Minnesota

CITY           SKY/WX    TMP DP  RH WIND       PRES   REMARKS
FERGUS FALLS   CLOUDY    10   1  67 SE13      30.02F WCI  -5
WHEATON        FAIR       5   0  78 E10       29.99F WCI -10
MORRIS         PTCLDY     7   1  78 SE10      29.96F WCI  -8
ALEXANDRIA     CLOUDY     9   3  77 SE12      29.98S WCI  -6
ELBOW LAKE     CLOUDY    10   4  75 SE16      29.97F HAZE    WCI  -7
WADENA         FLURRIES   7   1  78 SE8       30.00R WCI  -6
GLENWOOD       CLOUDY     9   3  78 SE13      29.98F WCI  -7
APPLETON       PTCLDY     9   3  78 E10       29.96F WCI  -6
BENSON         PTCLDY     9   3  78 SE10      29.96F WCI  -6
ORTONVILLE     PTCLDY     7   1  78 SE8       29.94F WCI  -6
MADISON        PTCLDY    12   7  79 SE12      29.94F WCI  -2
WILLMAR        FAIR       9   3  78 E10       30.00S WCI  -6
$$
MNZ033>034-036-042>043-049>051-058-059-281200-
   Central Minnesota

CITY           SKY/WX    TMP DP  RH WIND       PRES   REMARKS
ST CLOUD       CLOUDY    10   5  80 SE7       30.04S WCI  -1
SAUK CENTRE    CLOUDY     9   4  82 SE9       30.01R WCI  -5
PAYNESVILLE    CLOUDY     7   4  86 E10       30.01S WCI  -7
AITKIN         LGT RAIN  10   3  72 E3        30.04S
PINE RIVER     FLURRIES   9   5  85 SE6       30.05F WCI  -1
BRAINERD       CLOUDY     8   4  83 SE3       30.04S
STAPLES        CLOUDY     7   3  85 SE6       30.01S WCI  -3
LONG PRAIRIE   CLOUDY     9   3  78 SE7       30.01R WCI  -3
LITTLE FALLS   FLURRIES   9   5  85 SE7       30.04S WCI  -3
LITCHFIELD     MOCLDY    10   7  85 SE10      30.02S WCI  -3
BUFFALO        CLOUDY    11   6  81 SE5       30.04F WCI   3
MAPLE LAKE     CLOUDY    12   8  86 SE6       30.04F WCI   2
$$
MNZ037-044-045-052-053-281200-
   East Central Minnesota

CITY           SKY/WX    TMP DP  RH WIND       PRES   REMARKS
PRINCETON      CLOUDY    10   7  85 CALM      30.05S
MORA             N/A    N/A N/A N/A MISG        N/A
CAMBRIDGE      FLURRIES  12   3  67 E7        30.04F WCI   2
RUSH CITY      CLOUDY    10   6  85 E3        30.07F
MOOSE LAKE     LGT SNOW  10   5  79 E3        30.07F
HINCKLEY       FLURRIES  10   9  92 CALM      30.08F
CLOQUET        FLURRIES   7   1  78 E5        30.08F WCI  -2
MCGREGOR       CLOUDY    10   7  85 E7        30.06F WCI   0
$$
MNZ071>073-080-081-089-090-097-098-281200-
   Southwest Minnesota

CITY           SKY/WX    TMP DP  RH WIND       PRES   REMARKS
MONTEVIDEO     PTCLDY     9   3  78 S13       29.97F WCI  -7
GRANITE FALLS  PTCLDY     9   4  80 E10       29.98F WCI  -5
CANBY          PTCLDY     9   6  87 SE7       29.92F WCI  -2
MARSHALL       PTCLDY    10   3  72 E10       29.91F WCI  -3
REDWOOD FALLS  PTCLDY    10   4  76 SE8       29.99F WCI  -2
OLIVIA         PTCLDY    10   5  79 SE7       29.99S WCI   0
PIPESTONE      FAIR      14  12  92 S8        29.86F WCI   3
WINDOM         MOCLDY    10   9  92 SE6       29.92F WCI   1
WORTHINGTON    PTCLDY    12   9  85 S7        29.89F WCI   2
JACKSON        PTCLDY    14  10  85 SE9       29.93F WCI   2
TRACY          PTCLDY    12   8  83 SE6       29.93F WCI   2
SLAYTON        CLEAR     11   9  92 SE9       29.90F WCI  -1
$$
MNZ065>067-074>077-082>085-091>093-281200-
   South Central Minnesota

CITY           SKY/WX    TMP DP  RH WIND       PRES   REMARKS
MANKATO        PTCLDY    10   3  72 SE10      30.01F WCI  -3
NEW ULM        PTCLDY    10   7  85 SE8       29.99F WCI  -1
ST JAMES       PTCLDY    12   9  85 SE9       29.99F WCI   0
FAIRMONT       MOCLDY    14   9  79 S13       29.96F WCI   0
GLENCOE        PTCLDY     9   6  88 E8        30.01F WCI  -3
FARIBAULT      PTCLDY    12   7  79 SE10      30.03F WCI  -1
OWATONNA       MOCLDY    16   7  67 SE14G22   30.01F WCI   1
WASECA         MOCLDY    14   5  67 SE14      30.03F WCI  -1
ALBERT LEA     MOCLDY    12   7  79 SE14      30.01F WCI  -3
$$
MNZ078>079-086>088-094>096-281200-
   Southeast Minnesota

CITY           SKY/WX    TMP DP  RH WIND       PRES   REMARKS
ROCHESTER      CLOUDY    13   8  81 SE20      30.04F WCI  -5
RED WING       CLOUDY    12   9  85 SE13      30.08F WCI  -3
STANTON        MOCLDY    13   7  78 SE7       30.03F WCI   3
DODGE CENTER   CLOUDY    12   9  85 SE16      30.02F WCI  -4
WINONA         CLOUDY    14  10  85 SE10      30.16F WCI   1
AUSTIN         CLOUDY    14   7  73 SE12G17   30.03F WCI   0
PRESTON        CLOUDY    12   8  83 SE13      30.07F WCI  -3
$$
ABBREVIATIONS USED IN REMARKS
   TC - TEMPERATURES IN CELSIUS
  WCI - WIND CHILL INDEX
   HX - HEAT INDEX
  VSB - VISIBILITY
$$


USA.gov is the U.S. government's official web portal to all federal, state and local government web resources and services.